BCS6717 EGLL-EDDF

Flight info

Callsign BCS6717
Flight time 1h 10m
Altitude 35000
Route BPK Q295 MATCH DCT REDFA DCT TACHA DCT NOLRU DCT DIXAT DIXAT2C
Aircraft A306/H-SDE1FGHIRWXYZ/HB1

Departure

Time 2026-05-07 19:52
Airport London Heathrow Airport (EGLL)

Arrival

Time 2026-05-07 21:03
Airport Frankfurt Main Airport (EDDF)
Time Latitude Longitude Altitude Speed Heading
2026-05-07 19:24 51.46018 -0.47389 92 ft 0 kts 234°
2026-05-07 19:37 51.46020 -0.47385 92 ft 3 kts 234°
2026-05-07 19:38 51.46035 -0.47350 92 ft 4 kts 234°
2026-05-07 19:38 51.46048 -0.47322 92 ft 3 kts 234°
2026-05-07 19:38 51.46065 -0.47290 94 ft 4 kts 218°
2026-05-07 19:38 51.46087 -0.47268 95 ft 4 kts 197°
2026-05-07 19:39 51.46113 -0.47261 93 ft 3 kts 180°
2026-05-07 19:39 51.46137 -0.47262 93 ft 4 kts 179°
2026-05-07 19:39 51.46164 -0.47262 93 ft 4 kts 179°
2026-05-07 19:39 51.46191 -0.47262 93 ft 4 kts 179°
2026-05-07 19:40 51.46218 -0.47262 93 ft 4 kts 179°
2026-05-07 19:40 51.46245 -0.47263 93 ft 4 kts 179°
2026-05-07 19:40 51.46270 -0.47263 93 ft 3 kts 180°
2026-05-07 19:40 51.46297 -0.47259 94 ft 4 kts 199°
2026-05-07 19:41 51.46317 -0.47239 93 ft 4 kts 244°
2026-05-07 19:41 51.46321 -0.47202 92 ft 4 kts 269°
2026-05-07 19:41 51.46321 -0.47182 93 ft 0 kts 269°
2026-05-07 19:43 51.46321 -0.47283 95 ft 21 kts 271°
2026-05-07 19:43 51.46334 -0.47433 98 ft 13 kts 277°
2026-05-07 19:44 51.46339 -0.47573 95 ft 21 kts 270°
2026-05-07 19:44 51.46309 -0.47708 97 ft 7 kts 240°
2026-05-07 19:44 51.46285 -0.47778 96 ft 0 kts 240°
2026-05-07 19:45 51.46261 -0.47849 97 ft 14 kts 247°
2026-05-07 19:45 51.46251 -0.47989 95 ft 12 kts 269°
2026-05-07 19:45 51.46250 -0.48156 93 ft 19 kts 270°
2026-05-07 19:45 51.46250 -0.48381 90 ft 20 kts 269°
2026-05-07 19:46 51.46255 -0.48587 94 ft 18 kts 283°
2026-05-07 19:46 51.46297 -0.48699 95 ft 0 kts 320°
2026-05-07 19:49 51.46321 -0.48724 94 ft 11 kts 333°
2026-05-07 19:49 51.46421 -0.48752 95 ft 16 kts
2026-05-07 19:49 51.46477 -0.48650 96 ft 13 kts 88°
2026-05-07 19:49 51.46478 -0.48619 95 ft 0 kts 89°
2026-05-07 19:51 51.46478 -0.48616 95 ft 3 kts 89°
2026-05-07 19:51 51.46480 -0.48347 93 ft 56 kts 90°
2026-05-07 19:51 51.46482 -0.47337 96 ft 122 kts 90°
2026-05-07 19:52 51.46484 -0.45671 148 ft 171 kts 87°
2026-05-07 19:52 51.46508 -0.43770 992 ft 170 kts 91°
2026-05-07 19:52 51.46611 -0.41774 1502 ft 199 kts 76°
2026-05-07 19:52 51.47357 -0.39744 2023 ft 221 kts 48°
2026-05-07 19:53 51.48482 -0.37971 2634 ft 238 kts 45°
2026-05-07 19:53 51.49702 -0.36051 3431 ft 250 kts 46°
2026-05-07 19:53 51.50933 -0.34047 4417 ft 254 kts 47°
2026-05-07 19:53 51.51900 -0.31663 5294 ft 259 kts 66°
2026-05-07 19:54 51.52341 -0.29863 5694 ft 264 kts 70°
2026-05-07 19:54 51.52944 -0.27068 5975 ft 267 kts 71°
2026-05-07 19:54 51.53542 -0.24225 6002 ft 269 kts 71°
2026-05-07 19:54 51.54159 -0.21443 6000 ft 270 kts 66°
2026-05-07 19:55 51.55267 -0.19058 5996 ft 270 kts 36°
2026-05-07 19:55 51.56995 -0.18008 6008 ft 269 kts
2026-05-07 19:55 51.58864 -0.17744 6004 ft 270 kts
2026-05-07 19:55 51.60669 -0.17155 6003 ft 271 kts 13°
2026-05-07 19:56 51.62495 -0.16383 6000 ft 271 kts 15°
2026-05-07 19:56 51.64309 -0.15572 6000 ft 271 kts 15°
2026-05-07 19:56 51.66126 -0.14746 6001 ft 271 kts 15°
2026-05-07 19:56 51.67942 -0.13916 6001 ft 271 kts 15°
2026-05-07 19:57 51.69756 -0.13083 5999 ft 271 kts 15°
2026-05-07 19:57 51.71571 -0.12247 6024 ft 271 kts 16°
2026-05-07 19:57 51.73328 -0.11155 6429 ft 273 kts 30°
2026-05-07 19:57 51.74714 -0.09041 7290 ft 279 kts 57°
2026-05-07 19:58 51.75453 -0.06145 8319 ft 282 kts 74°
2026-05-07 19:58 51.75879 -0.03030 9303 ft 287 kts 81°
2026-05-07 19:58 51.76147 0.00204 10228 ft 294 kts 85°
2026-05-07 19:58 51.76353 0.03580 10745 ft 313 kts 87°
2026-05-07 19:59 51.76321 0.07202 11092 ft 333 kts 92°
2026-05-07 19:59 51.76700 0.10994 11412 ft 355 kts 71°
2026-05-07 19:59 51.77940 0.14552 11793 ft 371 kts 53°
2026-05-07 19:59 51.79572 0.17833 12418 ft 378 kts 51°
2026-05-07 20:00 51.81226 0.21075 13057 ft 383 kts 51°
2026-05-07 20:00 51.82944 0.24406 13711 ft 389 kts 51°
2026-05-07 20:00 51.84581 0.27953 14301 ft 392 kts 62°
2026-05-07 20:00 51.85612 0.32002 14923 ft 394 kts 73°
2026-05-07 20:01 51.86360 0.36280 15536 ft 397 kts 77°
2026-05-07 20:01 51.86956 0.40652 16145 ft 400 kts 79°
2026-05-07 20:01 51.87487 0.45099 16760 ft 404 kts 81°
2026-05-07 20:01 51.88002 0.49595 17341 ft 408 kts 80°
2026-05-07 20:02 51.88520 0.54051 17965 ft 411 kts 80°
2026-05-07 20:02 51.89075 0.58698 18549 ft 415 kts 79°
2026-05-07 20:02 51.89639 0.63302 19047 ft 419 kts 79°
2026-05-07 20:02 51.90219 0.67955 19540 ft 423 kts 79°
2026-05-07 20:03 51.90806 0.72635 20031 ft 426 kts 79°
2026-05-07 20:03 51.91400 0.77362 20515 ft 430 kts 79°
2026-05-07 20:03 51.91995 0.82116 20991 ft 433 kts 79°
2026-05-07 20:03 51.92594 0.86922 21453 ft 436 kts 79°
2026-05-07 20:04 51.93194 0.91756 21908 ft 439 kts 79°
2026-05-07 20:04 51.93796 0.96633 22359 ft 443 kts 79°
2026-05-07 20:04 51.94399 1.01539 22781 ft 446 kts 79°
2026-05-07 20:04 51.95005 1.06488 23212 ft 449 kts 79°
2026-05-07 20:05 51.95612 1.11463 23626 ft 452 kts 79°
2026-05-07 20:05 51.96222 1.16483 23979 ft 455 kts 79°
2026-05-07 20:05 51.96832 1.21530 24318 ft 458 kts 79°
2026-05-07 20:05 51.97446 1.26619 24654 ft 460 kts 79°
2026-05-07 20:06 51.98059 1.31725 24986 ft 463 kts 79°
2026-05-07 20:06 51.98675 1.36869 25308 ft 465 kts 79°
2026-05-07 20:06 51.99289 1.42019 25626 ft 468 kts 79°
2026-05-07 20:06 51.99906 1.47216 25925 ft 470 kts 79°
2026-05-07 20:07 52.00523 1.52435 26248 ft 472 kts 79°
2026-05-07 20:07 52.01141 1.57678 26542 ft 474 kts 79°
2026-05-07 20:07 52.01758 1.62939 26829 ft 476 kts 79°
2026-05-07 20:07 52.02377 1.68235 27102 ft 478 kts 79°
2026-05-07 20:08 52.02995 1.73554 27369 ft 480 kts 79°
2026-05-07 20:08 52.03616 1.78916 27679 ft 482 kts 79°
2026-05-07 20:08 52.04232 1.84249 27971 ft 483 kts 79°
2026-05-07 20:08 52.04848 1.89616 28219 ft 485 kts 79°
2026-05-07 20:09 52.05465 1.95014 28448 ft 487 kts 80°
2026-05-07 20:09 52.06082 2.00424 28731 ft 488 kts 80°
2026-05-07 20:09 52.06696 2.05840 29093 ft 487 kts 80°
2026-05-07 20:10 52.07913 2.16646 29794 ft 485 kts 80°
2026-05-07 20:10 52.08518 2.22046 30137 ft 485 kts 80°
2026-05-07 20:10 52.09119 2.27439 30448 ft 485 kts 80°
2026-05-07 20:10 52.09717 2.32825 30738 ft 484 kts 80°
2026-05-07 20:11 52.10311 2.38207 31024 ft 484 kts 80°
2026-05-07 20:11 52.10903 2.43590 31334 ft 483 kts 80°
2026-05-07 20:11 52.11601 2.48928 31643 ft 482 kts 75°
2026-05-07 20:11 52.12519 2.54165 31993 ft 481 kts 74°
2026-05-07 20:12 52.13476 2.59376 32283 ft 481 kts 73°
2026-05-07 20:12 52.14443 2.64510 32559 ft 481 kts 73°
2026-05-07 20:12 52.15432 2.69702 32871 ft 480 kts 73°
2026-05-07 20:12 52.16422 2.74889 33168 ft 480 kts 73°
2026-05-07 20:13 52.17410 2.80083 33466 ft 480 kts 73°
2026-05-07 20:13 52.18393 2.85276 33763 ft 479 kts 73°
2026-05-07 20:13 52.19371 2.90469 34071 ft 479 kts 73°
2026-05-07 20:13 52.20343 2.95655 34318 ft 479 kts 73°
2026-05-07 20:14 52.21312 3.00842 34607 ft 477 kts 73°
2026-05-07 20:14 52.22274 3.06015 34870 ft 477 kts 73°
2026-05-07 20:14 52.23234 3.11190 35062 ft 478 kts 73°
2026-05-07 20:15 52.24587 3.21514 35091 ft 452 kts 88°
2026-05-07 20:15 52.24477 3.26571 35096 ft 443 kts 99°
2026-05-07 20:15 52.23801 3.31444 35097 ft 439 kts 109°
2026-05-07 20:16 52.21751 3.40826 35093 ft 440 kts 113°
2026-05-07 20:16 52.19474 3.50110 35100 ft 441 kts 114°
2026-05-07 20:17 52.17192 3.59364 35104 ft 440 kts 114°
2026-05-07 20:17 52.14935 3.68627 35090 ft 440 kts 113°
2026-05-07 20:18 52.12687 3.77885 35089 ft 440 kts 113°
2026-05-07 20:18 52.10434 3.87142 35088 ft 440 kts 114°
2026-05-07 20:19 52.08172 3.96387 35092 ft 440 kts 114°
2026-05-07 20:19 52.05908 4.05600 35090 ft 439 kts 114°
2026-05-07 20:20 52.03637 4.14801 35087 ft 439 kts 114°
2026-05-07 20:20 52.01357 4.23995 35077 ft 439 kts 114°
2026-05-07 20:21 51.99088 4.33113 35077 ft 439 kts 114°
2026-05-07 20:21 51.96796 4.42286 35077 ft 439 kts 114°
2026-05-07 20:22 51.94496 4.51450 35077 ft 440 kts 114°
2026-05-07 20:22 51.92189 4.60604 35077 ft 440 kts 114°
2026-05-07 20:23 51.89868 4.69778 35074 ft 440 kts 114°
2026-05-07 20:23 51.87540 4.78941 35075 ft 440 kts 114°
2026-05-07 20:24 51.85206 4.88091 35076 ft 440 kts 114°
2026-05-07 20:24 51.82867 4.97221 35078 ft 439 kts 114°
2026-05-07 20:25 51.80525 5.06329 35076 ft 439 kts 114°
2026-05-07 20:25 51.78174 5.15433 35076 ft 439 kts 114°
2026-05-07 20:26 51.75817 5.24522 35075 ft 439 kts 114°
2026-05-07 20:26 51.73455 5.33598 35070 ft 439 kts 115°
2026-05-07 20:27 51.71085 5.42664 35076 ft 438 kts 115°
2026-05-07 20:27 51.68712 5.51708 35078 ft 438 kts 115°
2026-05-07 20:28 51.66330 5.60748 35076 ft 439 kts 115°
2026-05-07 20:28 51.63949 5.69751 35074 ft 440 kts 115°
2026-05-07 20:29 51.61529 5.78866 35074 ft 440 kts 115°
2026-05-07 20:29 51.59135 5.87848 35073 ft 440 kts 115°
2026-05-07 20:30 51.56717 5.96880 35075 ft 440 kts 115°
2026-05-07 20:30 51.54292 6.05908 35077 ft 440 kts 115°
2026-05-07 20:31 51.51858 6.14929 35078 ft 440 kts 115°
2026-05-07 20:31 51.49449 6.23961 35075 ft 440 kts 114°
2026-05-07 20:32 51.47208 6.33039 35078 ft 439 kts 113°
2026-05-07 20:32 51.44997 6.42168 35080 ft 439 kts 113°
2026-05-07 20:33 51.42768 6.51279 35076 ft 439 kts 113°
2026-05-07 20:33 51.40521 6.60365 35082 ft 440 kts 113°
2026-05-07 20:34 51.38224 6.69590 35082 ft 452 kts 113°
2026-05-07 20:34 51.35858 6.79052 35088 ft 463 kts 113°
2026-05-07 20:35 51.33452 6.88648 35084 ft 465 kts 113°
2026-05-07 20:35 51.31039 6.98234 34928 ft 461 kts 113°
2026-05-07 20:35 51.29842 7.02971 34177 ft 461 kts 113°
2026-05-07 20:36 51.28642 7.07711 33389 ft 460 kts 114°
2026-05-07 20:36 51.27176 7.12198 32779 ft 451 kts 127°
2026-05-07 20:36 51.25079 7.15838 32165 ft 442 kts 143°
2026-05-07 20:36 51.22537 7.18483 31596 ft 434 kts 153°
2026-05-07 20:37 51.19889 7.20747 31002 ft 429 kts 154°
2026-05-07 20:37 51.17367 7.22829 30440 ft 426 kts 155°
2026-05-07 20:37 51.14686 7.25027 29805 ft 423 kts 155°
2026-05-07 20:37 51.12088 7.27156 29217 ft 417 kts 155°
2026-05-07 20:38 51.09558 7.29229 28692 ft 412 kts 155°
2026-05-07 20:38 51.06987 7.31333 28139 ft 408 kts 155°
2026-05-07 20:38 51.04474 7.33388 27582 ft 405 kts 155°
2026-05-07 20:38 51.01980 7.35425 27023 ft 402 kts 155°
2026-05-07 20:39 50.99532 7.37423 26487 ft 400 kts 155°
2026-05-07 20:39 50.97066 7.39432 25952 ft 397 kts 155°
2026-05-07 20:39 50.94607 7.41434 25379 ft 397 kts 154°
2026-05-07 20:39 50.92151 7.43431 24799 ft 396 kts 154°
2026-05-07 20:40 50.89705 7.45418 24238 ft 395 kts 154°
2026-05-07 20:40 50.87259 7.47402 23668 ft 394 kts 154°
2026-05-07 20:40 50.84823 7.49377 23024 ft 393 kts 154°
2026-05-07 20:40 50.82400 7.51339 22474 ft 390 kts 154°
2026-05-07 20:41 50.79993 7.53285 21905 ft 386 kts 155°
2026-05-07 20:41 50.77612 7.55209 21352 ft 383 kts 155°
2026-05-07 20:41 50.75249 7.57114 20785 ft 380 kts 155°
2026-05-07 20:41 50.72899 7.59007 20223 ft 378 kts 154°
2026-05-07 20:42 50.70564 7.60886 19664 ft 375 kts 154°
2026-05-07 20:42 50.68247 7.62748 19128 ft 372 kts 154°
2026-05-07 20:42 50.65953 7.64590 18631 ft 369 kts 154°
2026-05-07 20:42 50.64437 7.65807 18233 ft 368 kts 154°
2026-05-07 20:43 50.62172 7.67624 17642 ft 365 kts 154°
2026-05-07 20:43 50.59926 7.69422 17100 ft 361 kts 154°
2026-05-07 20:43 50.57699 7.71204 16564 ft 357 kts 154°
2026-05-07 20:43 50.55489 7.72971 16003 ft 354 kts 154°
2026-05-07 20:44 50.53306 7.74713 15413 ft 352 kts 154°
2026-05-07 20:44 50.51128 7.76450 14903 ft 348 kts 155°
2026-05-07 20:44 50.48973 7.78165 14369 ft 346 kts 155°
2026-05-07 20:44 50.46836 7.79866 13807 ft 344 kts 155°
2026-05-07 20:45 50.44713 7.81554 13264 ft 340 kts 154°
2026-05-07 20:45 50.42722 7.83507 12830 ft 334 kts 145°
2026-05-07 20:45 50.40909 7.85702 12537 ft 324 kts 143°
2026-05-07 20:45 50.39167 7.87872 12215 ft 316 kts 142°
2026-05-07 20:46 50.37454 7.90007 11904 ft 314 kts 142°
2026-05-07 20:46 50.35746 7.92132 11602 ft 314 kts 142°
2026-05-07 20:46 50.34045 7.94244 11363 ft 308 kts 142°
2026-05-07 20:46 50.32392 7.96291 11117 ft 299 kts 142°
2026-05-07 20:47 50.30774 7.98293 10833 ft 296 kts 142°
2026-05-07 20:47 50.29160 8.00286 10525 ft 295 kts 142°
2026-05-07 20:47 50.27571 8.02300 10239 ft 294 kts 138°
2026-05-07 20:47 50.26321 8.04804 9998 ft 293 kts 116°
2026-05-07 20:48 50.25663 8.07808 9845 ft 292 kts 105°
2026-05-07 20:48 50.25169 8.10886 9718 ft 292 kts 103°
2026-05-07 20:48 50.24690 8.13964 9585 ft 292 kts 103°
2026-05-07 20:48 50.24208 8.17034 9452 ft 291 kts 104°
2026-05-07 20:49 50.23721 8.20097 9330 ft 290 kts 104°
2026-05-07 20:49 50.23231 8.23151 9199 ft 289 kts 104°
2026-05-07 20:49 50.22738 8.26200 9056 ft 289 kts 104°
2026-05-07 20:49 50.22245 8.29246 8862 ft 289 kts 104°
2026-05-07 20:50 50.21753 8.32275 8722 ft 288 kts 104°
2026-05-07 20:50 50.21243 8.35300 8601 ft 288 kts 107°
2026-05-07 20:50 50.20339 8.38066 8466 ft 287 kts 129°
2026-05-07 20:50 50.18780 8.39950 8341 ft 284 kts 154°
2026-05-07 20:51 50.16954 8.41110 8232 ft 284 kts 161°
2026-05-07 20:51 50.15083 8.42086 8093 ft 283 kts 167°
2026-05-07 20:51 50.13149 8.42288 7960 ft 281 kts 189°
2026-05-07 20:51 50.11353 8.41203 7838 ft 277 kts 216°
2026-05-07 20:52 50.10063 8.39031 7725 ft 274 kts 241°
2026-05-07 20:52 50.09289 8.36330 7609 ft 273 kts 250°
2026-05-07 20:52 50.08635 8.33549 7482 ft 273 kts 251°
2026-05-07 20:52 50.07988 8.30775 7357 ft 272 kts 251°
2026-05-07 20:53 50.07334 8.28012 7238 ft 272 kts 250°
2026-05-07 20:53 50.06674 8.25258 7119 ft 271 kts 250°
2026-05-07 20:53 50.06011 8.22510 6993 ft 271 kts 250°
2026-05-07 20:53 50.05356 8.19809 6874 ft 270 kts 250°
2026-05-07 20:54 50.04692 8.17080 6765 ft 270 kts 250°
2026-05-07 20:54 50.04030 8.14366 6627 ft 269 kts 250°
2026-05-07 20:54 50.03349 8.11577 6515 ft 269 kts 250°
2026-05-07 20:54 50.02645 8.08891 6411 ft 268 kts 244°
2026-05-07 20:55 50.01592 8.06534 6045 ft 268 kts 226°
2026-05-07 20:55 50.00061 8.04949 5845 ft 259 kts 201°
2026-05-07 20:55 49.98329 8.04530 5657 ft 249 kts 176°
2026-05-07 20:55 49.96742 8.05366 5442 ft 239 kts 141°
2026-05-07 20:56 49.95830 8.07462 5268 ft 227 kts 105°
2026-05-07 20:56 49.95532 8.09790 5208 ft 214 kts 97°
2026-05-07 20:56 49.95345 8.12002 5103 ft 200 kts 96°
2026-05-07 20:56 49.95177 8.14106 4993 ft 194 kts 88°
2026-05-07 20:57 49.95548 8.16072 4902 ft 182 kts 64°
2026-05-07 20:57 49.96065 8.17884 4690 ft 176 kts 66°
2026-05-07 20:57 49.96500 8.19641 4436 ft 172 kts 69°
2026-05-07 20:57 49.96909 8.21366 4179 ft 170 kts 69°
2026-05-07 20:58 49.97315 8.23061 3927 ft 168 kts 68°
2026-05-07 20:58 49.97730 8.24785 3702 ft 166 kts 68°
2026-05-07 20:58 49.98128 8.26444 3483 ft 165 kts 68°
2026-05-07 20:58 49.98530 8.28118 3261 ft 164 kts 68°
2026-05-07 20:59 49.98930 8.29787 3032 ft 163 kts 69°
2026-05-07 20:59 49.99323 8.31424 2815 ft 162 kts 69°
2026-05-07 20:59 49.99745 8.33187 2568 ft 160 kts 69°
2026-05-07 20:59 50.00102 8.34677 2371 ft 154 kts 69°
2026-05-07 21:00 50.00466 8.36194 2163 ft 142 kts 69°
2026-05-07 21:00 50.00814 8.37646 1962 ft 135 kts 69°
2026-05-07 21:00 50.01146 8.39031 1768 ft 135 kts 69°
2026-05-07 21:00 50.01466 8.40366 1597 ft 135 kts 69°
2026-05-07 21:01 50.01684 8.41277 1472 ft 135 kts 69°
2026-05-07 21:01 50.02015 8.42661 1287 ft 135 kts 69°
2026-05-07 21:01 50.02456 8.44502 1051 ft 137 kts 68°
2026-05-07 21:01 50.02788 8.45889 849 ft 137 kts 68°
2026-05-07 21:02 50.03115 8.47260 672 ft 137 kts 68°
2026-05-07 21:02 50.03447 8.48658 483 ft 136 kts 67°
2026-05-07 21:02 50.03719 8.49777 355 ft 133 kts 68°
2026-05-07 21:02 50.03980 8.50849 329 ft 105 kts 70°
2026-05-07 21:03 50.04174 8.51657 351 ft 47 kts 69°
2026-05-07 21:03 50.04237 8.52019 345 ft 19 kts 88°
2026-05-07 21:03 50.04231 8.52194 347 ft 14 kts 98°
2026-05-07 21:03 50.04215 8.52341 351 ft 12 kts 101°
2026-05-07 21:04 50.04199 8.52480 350 ft 15 kts 99°
2026-05-07 21:04 50.04192 8.52620 352 ft 14 kts 84°
2026-05-07 21:04 50.04219 8.52752 362 ft 12 kts 69°
2026-05-07 21:04 50.04251 8.52885 360 ft 16 kts 70°
2026-05-07 21:05 50.04295 8.53072 362 ft 18 kts 69°
2026-05-07 21:05 50.04336 8.53240 365 ft 18 kts 69°
2026-05-07 21:05 50.04387 8.53450 373 ft 21 kts 71°
2026-05-07 21:05 50.04406 8.53670 368 ft 20 kts 84°
2026-05-07 21:06 50.04420 8.53886 367 ft 20 kts 84°
2026-05-07 21:06 50.04435 8.54103 367 ft 20 kts 83°
2026-05-07 21:06 50.04449 8.54321 370 ft 20 kts 84°
2026-05-07 21:06 50.04441 8.54541 373 ft 20 kts 107°
2026-05-07 21:07 50.04364 8.54718 371 ft 20 kts 140°
2026-05-07 21:07 50.04239 8.54814 370 ft 20 kts 161°
2026-05-07 21:07 50.04112 8.54886 372 ft 15 kts 160°
2026-05-07 21:07 50.04027 8.54926 368 ft 12 kts 179°
2026-05-07 21:08 50.03975 8.54838 372 ft 12 kts 250°
2026-05-07 21:08 50.03937 8.54676 372 ft 18 kts 250°
2026-05-07 21:08 50.03893 8.54493 372 ft 18 kts 250°
2026-05-07 21:08 50.03836 8.54318 372 ft 18 kts 234°
2026-05-07 21:09 50.03781 8.54144 372 ft 18 kts 250°
2026-05-07 21:09 50.03736 8.53954 372 ft 18 kts 249°
2026-05-07 21:09 50.03694 8.53779 369 ft 17 kts 249°
2026-05-07 21:09 50.03662 8.53645 371 ft 12 kts 253°
2026-05-07 21:10 50.03703 8.53564 370 ft 10 kts 338°
2026-05-07 21:10 50.03746 8.53537 374 ft 6 kts 340°
2026-05-07 21:10 50.03783 8.53516 370 ft 5 kts 340°
2026-05-07 21:10 50.03800 8.53506 369 ft 1 kts 339°
2026-05-07 21:11 50.03809 8.53501 370 ft 1 kts 339°
2026-05-07 21:11 50.03816 8.53497 370 ft 0 kts 339°